Location: ???????
(55.4362°N, 38.1183°E)
Time: 18:11:22
(UTC+00:00)

NOSS 0 Rocket - Pass Details

Date: 17 June 2021
Orbit: 934 x 956 km, 70.0° (Epoch: 29 July)

Event Time Altitude Azimuth Distance (km) Brightness Sun altitude
Exits shadow 20:32:45 10° 189° (S) 2,636 5.7 -10.3°
Maximum altitude 20:38:38 52° 115° (ESE) 1,165 4.2 -10.4°
Drops below altitude 10° 20:44:40 10° 41° (NE) 2,693 6.9 -10.6°
Sets 20:47:16 0° 37° (NE) 3,644 7.7 -10.7°
